| time (UTC) | temp F | wind direction | speed MPH | gust MPH | rain 1hr in | rain 24hr in | rain mn in | humidity % | barometer mb |
| 20260503041103 | 55 | 179 | 0.0 | 0.0 | 0.01 | 0.21 | 0.06 | 92 | 1011.1 |
| 20260503040602 | 55 | 179 | 0.0 | 0.0 | 0.01 | 0.21 | 0.06 | 92 | 1011.0 |
| 20260503035602 | 55 | 179 | 0.0 | 0.0 | 0.01 | 0.20 | 0.06 | 91 | 1011.0 |
| 20260503035102 | 55 | 179 | 0.0 | 0.0 | 0.01 | 0.20 | 0.06 | 91 | 1010.9 |
| 20260503034604 | 55 | 179 | 0.0 | 0.0 | 0.01 | 0.20 | 0.06 | 92 | 1010.8 |
| 20260503034102 | 55 | 179 | 0.0 | 0.0 | 0.01 | 0.20 | 0.06 | 91 | 1010.8 |
| 20260503033602 | 55 | 179 | 0.0 | 0.0 | 0.01 | 0.20 | 0.06 | 91 | 1010.9 |
| 20260503033347 | 55 | 179 | 0.0 | 0.0 | 0.01 | 0.20 | 0.06 | 91 | 1011.0 |
| 20260503032603 | 55 | 179 | 0.0 | 0.0 | 0.00 | 0.20 | 0.05 | 91 | 1011.1 |
| 20260503032103 | 55 | 179 | 0.0 | 0.0 | 0.00 | 0.20 | 0.05 | 91 | 1011.2 |
| 20260503031604 | 55 | 179 | 0.0 | 0.0 | 0.00 | 0.20 | 0.05 | 91 | 1011.3 |
| 20260503031103 | 56 | 179 | 0.0 | 0.0 | 0.00 | 0.20 | 0.05 | 91 | 1011.3 |
| 20260503030602 | 56 | 179 | 0.0 | 0.0 | 0.00 | 0.20 | 0.05 | 91 | 1011.3 |
| 20260503025603 | 56 | 179 | 0.0 | 0.0 | 0.00 | 0.20 | 0.05 | 91 | 1011.3 |
| 20260503025102 | 56 | 179 | 0.0 | 0.0 | 0.00 | 0.20 | 0.05 | 91 | 1011.4 |
| 20260503024603 | 56 | 179 | 0.0 | 0.0 | 0.00 | 0.20 | 0.05 | 90 | 1011.4 |
| 20260503024409 | 56 | 179 | 0.0 | 0.0 | 0.00 | 0.20 | 0.05 | 91 | 1011.4 |
| 20260503023602 | 56 | 179 | 0.0 | 0.0 | 0.00 | 0.20 | 0.05 | 91 | 1011.5 |
| 20260503023344 | 57 | 179 | 0.0 | 0.0 | 0.00 | 0.20 | 0.05 | 91 | 1011.6 |
| 20260503022601 | 57 | 179 | 0.0 | 0.0 | 0.00 | 0.20 | 0.05 | 91 | 1011.7 |
| 20260503022102 | 57 | 179 | 0.0 | 1.0 | 0.00 | 0.20 | 0.05 | 91 | 1011.9 |
| 20260503021602 | 57 | 179 | 0.0 | 3.0 | 0.00 | 0.20 | 0.05 | 91 | 1011.8 |
| 20260503021111 | 57 | 178 | 1.0 | 3.0 | 0.00 | 0.20 | 0.05 | 91 | 1012.1 |
| 20260503020603 | 57 | 148 | 0.0 | 0.0 | 0.00 | 0.20 | 0.05 | 91 | 1012.0 |
| 20260503020104 | 57 | 144 | 0.0 | 0.0 | 0.00 | 0.20 | 0.05 | 90 | 1012.1 |
| 20260503015602 | 57 | 137 | 0.0 | 0.0 | 0.00 | 0.20 | 0.05 | 90 | 1012.1 |
| 20260503015119 | 57 | 131 | 0.0 | 0.0 | 0.00 | 0.20 | 0.05 | 91 | 1012.0 |
| 20260503014602 | 57 | 131 | 0.0 | 0.0 | 0.00 | 0.20 | 0.05 | 90 | 1012.0 |
| 20260503014102 | 57 | 131 | 0.0 | 0.0 | 0.00 | 0.20 | 0.05 | 90 | 1012.0 |
| 20260503013604 | 57 | 131 | 0.0 | 0.0 | 0.00 | 0.20 | 0.05 | 90 | 1012.1 |
| 20260503013102 | 57 | 131 | 0.0 | 0.0 | 0.00 | 0.20 | 0.05 | 90 | 1011.9 |
| 20260503012602 | 57 | 131 | 0.0 | 0.0 | 0.00 | 0.20 | 0.05 | 90 | 1012.0 |
| 20260503012102 | 57 | 131 | 0.0 | 1.0 | 0.00 | 0.20 | 0.05 | 90 | 1011.8 |
| 20260503011842 | 57 | 131 | 0.0 | 3.0 | 0.00 | 0.20 | 0.05 | 90 | 1011.8 |
| 20260503011102 | 57 | 131 | 1.0 | 3.0 | 0.00 | 0.20 | 0.05 | 90 | 1011.8 |
| 20260503010602 | 57 | 135 | 1.0 | 2.0 | 0.00 | 0.20 | 0.05 | 90 | 1011.8 |
| 20260503005609 | 58 | 135 | 0.0 | 4.0 | 0.00 | 0.20 | 0.05 | 90 | 1012.0 |
| 20260503005102 | 58 | 137 | 1.0 | 4.0 | 0.00 | 0.20 | 0.05 | 90 | 1012.1 |
| 20260503004602 | 58 | 144 | 2.0 | 3.0 | 0.00 | 0.20 | 0.05 | 90 | 1012.3 |
| 20260503004102 | 58 | 135 | 2.0 | 4.0 | 0.00 | 0.20 | 0.05 | 90 | 1012.3 |
| 20260503003602 | 58 | 110 | 1.0 | 4.0 | 0.00 | 0.20 | 0.05 | 90 | 1012.4 |
| 20260503003346 | 58 | 149 | 1.0 | 4.0 | 0.00 | 0.20 | 0.05 | 90 | 1012.3 |
| 20260503002603 | 58 | 135 | 0.0 | 3.0 | 0.00 | 0.20 | 0.05 | 91 | 1012.4 |
| 20260503002102 | 58 | 133 | 0.0 | 0.0 | 0.00 | 0.20 | 0.05 | 91 | 1012.4 |
| 20260503001857 | 58 | 130 | 0.0 | 0.0 | 0.00 | 0.20 | 0.05 | 91 | 1012.4 |
| 20260503001403 | 58 | 130 | 0.0 | 0.0 | 0.00 | 0.20 | 0.05 | 91 | 1012.6 |
| 20260503000602 | 58 | 130 | 0.0 | 0.0 | 0.00 | 0.20 | 0.05 | 91 | 1012.7 |
| 20260502235602 | 58 | 131 | 0.0 | 0.0 | 0.00 | 0.20 | 0.05 | 91 | 1012.7 |
| 20260502235102 | 58 | 125 | 0.0 | 0.0 | 0.00 | 0.20 | 0.05 | 90 | 1012.8 |
| 20260502234603 | 58 | 125 | 0.0 | 0.0 | 0.00 | 0.20 | 0.05 | 90 | 1012.9 |
| 20260502234113 | 58 | 124 | 0.0 | 0.0 | 0.01 | 0.20 | 0.05 | 90 | 1012.9 |
| 20260502233602 | 58 | 124 | 0.0 | 4.0 | 0.02 | 0.20 | 0.05 | 90 | 1012.9 |
| 20260502233346 | 58 | 125 | 0.0 | 4.0 | 0.02 | 0.20 | 0.05 | 90 | 1012.9 |
| 20260502232601 | 58 | 89 | 1.0 | 3.0 | 0.02 | 0.20 | 0.05 | 90 | 1013.0 |
| 20260502232101 | 58 | 73 | 0.0 | 4.0 | 0.03 | 0.20 | 0.05 | 90 | 1013.2 |
| 20260502231601 | 58 | 72 | 2.0 | 4.0 | 0.03 | 0.20 | 0.05 | 89 | 1013.2 |
| 20260502231106 | 58 | 31 | 0.0 | 2.0 | 0.04 | 0.20 | 0.05 | 89 | 1013.3 |
| 20260502230600 | 58 | 31 | 0.0 | 1.0 | 0.04 | 0.20 | 0.05 | 89 | 1013.4 |
| 20260502230113 | 58 | 31 | 0.0 | 2.0 | 0.05 | 0.20 | 0.05 | 89 | 1013.3 |
| 20260502225601 | 58 | 31 | 0.0 | 2.0 | 0.05 | 0.16 | 0.05 | 89 | 1013.3 |
| 20260502225101 | 58 | 31 | 1.0 | 3.0 | 0.06 | 0.16 | 0.05 | 89 | 1013.3 |
| 20260502224601 | 58 | 30 | 2.0 | 3.0 | 0.06 | 0.16 | 0.04 | 89 | 1013.4 |
| 20260502224100 | 58 | 30 | 1.0 | 3.0 | 0.06 | 0.16 | 0.04 | 89 | 1013.4 |
| 20260502223600 | 58 | 11 | 0.0 | 2.0 | 0.06 | 0.16 | 0.03 | 89 | 1013.3 |
| 20260502223101 | 58 | 11 | 0.0 | 3.0 | 0.06 | 0.16 | 0.03 | 89 | 1013.1 |
| 20260502222600 | 58 | 11 | 1.0 | 6.0 | 0.06 | 0.16 | 0.02 | 89 | 1013.0 |
| 20260502222113 | 58 | 11 | 3.0 | 6.0 | 0.05 | 0.16 | 0.02 | 88 | 1012.9 |
| 20260502221600 | 58 | 10 | 1.0 | 4.0 | 0.06 | 0.16 | 0.02 | 89 | 1012.9 |
| 20260502221059 | 58 | 37 | 0.0 | 4.0 | 0.05 | 0.16 | 0.01 | 89 | 1012.9 |
| 20260502220600 | 58 | 38 | 2.0 | 7.0 | 0.06 | 0.16 | 0.01 | 89 | 1012.8 |
| 20260502220100 | 59 | 23 | 4.0 | 7.0 | 0.05 | 0.16 | 0.00 | 89 | 1012.9 |
| 20260502215559 | 59 | 8 | 4.0 | 6.0 | 0.06 | 0.11 | 0.15 | 88 | 1012.9 |
| 20260502215100 | 59 | 21 | 4.0 | 5.0 | 0.05 | 0.11 | 0.15 | 88 | 1013.0 |
| 20260502214600 | 59 | 17 | 2.0 | 5.0 | 0.05 | 0.11 | 0.14 | 88 | 1013.1 |
| 20260502214102 | 59 | 35 | 2.0 | 5.0 | 0.05 | 0.11 | 0.14 | 88 | 1013.1 |
| 20260502213612 | 59 | 83 | 2.0 | 6.0 | 0.04 | 0.11 | 0.13 | 88 | 1013.1 |
| 20260502213058 | 59 | 90 | 4.0 | 6.0 | 0.05 | 0.11 | 0.13 | 88 | 1013.1 |
| 20260502212636 | 59 | 104 | 3.0 | 4.0 | 0.06 | 0.11 | 0.13 | 87 | 1013.5 |
| 20260502212623 | 59 | 87 | 2.0 | 5.0 | 0.05 | 0.11 | 0.13 | 88 | 1013.2 |
| 20260502211846 | 59 | 97 | 2.0 | 4.0 | 0.06 | 0.11 | 0.12 | 87 | 1013.6 |
| 20260502211059 | 59 | 56 | 3.0 | 4.0 | 0.09 | 0.11 | 0.12 | 87 | 1013.8 |
| 20260502210601 | 59 | 56 | 2.0 | 4.0 | 0.08 | 0.11 | 0.11 | 86 | 1013.8 |
| 20260502210100 | 59 | 49 | 0.0 | 5.0 | 0.08 | 0.11 | 0.11 | 86 | 1013.9 |
| 20260502205614 | 60 | 49 | 1.0 | 5.0 | 0.07 | 0.03 | 0.10 | 86 | 1013.9 |
| 20260502205245 | 60 | 320 | 5.0 | 16.0 | 0.09 | 0.03 | 0.09 | 86 | 1014.1 |
| 20260502205217 | 60 | 37 | 3.0 | 7.0 | 0.10 | 0.03 | 0.10 | 85 | 1013.9 |
| 20260502204643 | 60 | 14 | 3.0 | 9.0 | 0.09 | 0.03 | 0.09 | 86 | 1014.2 |
| 20260502203557 | 60 | 345 | 6.0 | 17.0 | 0.09 | 0.03 | 0.09 | 86 | 1014.2 |
| 20260502203057 | 60 | 334 | 11.0 | 17.0 | 0.09 | 0.03 | 0.08 | 85 | 1014.1 |
| 20260502202558 | 60 | 295 | 8.0 | 17.0 | 0.08 | 0.03 | 0.08 | 85 | 1014.2 |
| 20260502202107 | 61 | 344 | 7.0 | 17.0 | 0.07 | 0.03 | 0.07 | 82 | 1014.5 |
| 20260502201556 | 62 | 0 | 6.0 | 23.0 | 0.06 | 0.03 | 0.05 | 80 | 1014.7 |
| 20260502201058 | 64 | 288 | 14.0 | 23.0 | 0.03 | 0.03 | 0.03 | 75 | 1014.7 |
| 20260502200633 | 67 | 76 | 4.0 | 9.0 | 0.03 | 0.03 | 0.03 | 72 | 1013.2 |
| 20260502200618 | 66 | 281 | 12.0 | 17.0 | 0.03 | 0.03 | 0.03 | 76 | 1014.4 |
| 20260502195614 | 67 | 92 | 2.0 | 9.0 | 0.03 | 0.00 | 0.03 | 71 | 1013.0 |
| 20260502195056 | 68 | 104 | 4.0 | 7.0 | 0.00 | 0.00 | 0.00 | 67 | 1013.1 |
| 20260502194556 | 68 | 89 | 5.0 | 7.0 | 0.00 | 0.00 | 0.00 | 66 | 1013.0 |
| 20260502194056 | 68 | 45 | 4.0 | 7.0 | 0.00 | 0.00 | 0.00 | 65 | 1012.8 |
| 20260502193556 | 68 | 58 | 4.0 | 7.0 | 0.00 | 0.00 | 0.00 | 65 | 1012.9 |
| 20260502193055 | 68 | 30 | 4.0 | 6.0 | 0.00 | 0.00 | 0.00 | 65 | 1012.9 |
| 20260502192555 | 68 | 45 | 4.0 | 6.0 | 0.00 | 0.00 | 0.00 | 65 | 1013.1 |
| 20260502192347 | 68 | 55 | 4.0 | 5.0 | 0.00 | 0.00 | 0.00 | 65 | 1013.2 |
| 20260502191555 | 68 | 51 | 3.0 | 5.0 | 0.00 | 0.00 | 0.00 | 64 | 1013.3 |
| 20260502191055 | 68 | 23 | 2.0 | 5.0 | 0.00 | 0.00 | 0.00 | 64 | 1013.3 |
| 20260502190611 | 68 | 28 | 2.0 | 4.0 | 0.00 | 0.00 | 0.00 | 64 | 1013.3 |
| 20260502190056 | 68 | 39 | 1.0 | 4.0 | 0.00 | 0.00 | 0.00 | 63 | 1013.3 |
| 20260502185555 | 69 | 37 | 2.0 | 3.0 | 0.00 | 0.00 | 0.00 | 63 | 1013.3 |
| 20260502185056 | 69 | 27 | 1.0 | 3.0 | 0.00 | 0.00 | 0.00 | 62 | 1013.4 |
| 20260502184555 | 69 | 30 | 2.0 | 4.0 | 0.00 | 0.00 | 0.00 | 62 | 1013.3 |
| 20260502184056 | 69 | 30 | 2.0 | 5.0 | 0.00 | 0.00 | 0.00 | 61 | 1013.4 |
| 20260502183604 | 70 | 31 | 3.0 | 6.0 | 0.00 | 0.00 | 0.00 | 60 | 1013.4 |
| 20260502183054 | 70 | 24 | 3.0 | 6.0 | 0.00 | 0.00 | 0.00 | 60 | 1013.4 |
| 20260502182556 | 70 | 39 | 2.0 | 5.0 | 0.00 | 0.00 | 0.00 | 59 | 1013.4 |
| 20260502182056 | 71 | 30 | 3.0 | 6.0 | 0.00 | 0.00 | 0.00 | 59 | 1013.4 |
| 20260502181554 | 71 | 23 | 4.0 | 9.0 | 0.00 | 0.00 | 0.00 | 58 | 1013.5 |
| 20260502181055 | 71 | 44 | 3.0 | 9.0 | 0.00 | 0.00 | 0.00 | 58 | 1013.5 |
| 20260502180554 | 72 | 7 | 3.0 | 6.0 | 0.00 | 0.00 | 0.00 | 57 | 1013.4 |
| 20260502180347 | 72 | 6 | 2.0 | 4.0 | 0.00 | 0.00 | 0.00 | 56 | 1013.3 |
| 20260502164051 | 74 | 262 | 3.0 | 4.0 | 0.00 | 0.00 | 0.00 | 52 | 1014.0 |
| 20260502163853 | 74 | 266 | 1.0 | 4.0 | 0.00 | 0.00 | 0.00 | 51 | 1014.0 |
| 20260502163051 | 75 | 298 | 1.0 | 4.0 | 0.00 | 0.00 | 0.00 | 51 | 1014.1 |
| 20260502162551 | 75 | 275 | 2.0 | 5.0 | 0.00 | 0.00 | 0.00 | 50 | 1014.2 |
| 20260502162053 | 75 | 279 | 3.0 | 5.0 | 0.00 | 0.00 | 0.00 | 50 | 1014.2 |
| 20260502161551 | 75 | 224 | 2.0 | 6.0 | 0.00 | 0.00 | 0.00 | 51 | 1014.2 |
| 20260502161050 | 75 | 241 | 2.0 | 6.0 | 0.00 | 0.00 | 0.00 | 50 | 1014.2 |
| 20260502160552 | 75 | 254 | 2.0 | 4.0 | 0.00 | 0.00 | 0.00 | 50 | 1014.4 |
| 20260502160204 | 76 | 341 | 0.0 | 6.0 | 0.00 | 0.00 | 0.00 | 49 | 1014.4 |
| 20260502160129 | 76 | 282 | 1.0 | 4.0 | 0.00 | 0.00 | 0.00 | 49 | 1014.4 |
| 20260502151610 | 77 | 182 | 5.0 | 10.0 | 0.00 | 0.00 | 0.00 | 46 | 1014.9 |
| 20260502151340 | 78 | 206 | 5.0 | 10.0 | 0.00 | 0.00 | 0.00 | 47 | 1015.0 |
| 20260502150550 | 77 | 237 | 5.0 | 10.0 | 0.00 | 0.00 | 0.00 | 46 | 1015.0 |
| 20260502130545 | 75 | 306 | 4.0 | 11.0 | 0.00 | 0.00 | 0.00 | 53 | 1016.6 |
| 20260502123544 | 74 | 207 | 5.0 | 11.0 | 0.00 | 0.00 | 0.00 | 56 | 1017.0 |
| 20260502123334 | 74 | 269 | 5.0 | 11.0 | 0.00 | 0.00 | 0.00 | 55 | 1017.0 |
| 20260502122544 | 73 | 275 | 5.0 | 11.0 | 0.00 | 0.00 | 0.00 | 56 | 1017.2 |
| 20260502122046 | 74 | 271 | 4.0 | 11.0 | 0.00 | 0.00 | 0.00 | 55 | 1017.2 |
| 20260502121544 | 74 | 195 | 6.0 | 11.0 | 0.00 | 0.00 | 0.00 | 54 | 1017.2 |
| 20260502121101 | 73 | 227 | 6.0 | 14.0 | 0.00 | 0.00 | 0.00 | 54 | 1017.4 |
| 20260502120546 | 73 | 238 | 8.0 | 14.0 | 0.00 | 0.00 | 0.00 | 54 | 1017.4 |
| 20260502115543 | 73 | 234 | 7.0 | 14.0 | 0.00 | 0.00 | 0.00 | 55 | 1017.6 |
| 20260502115042 | 73 | 166 | 7.0 | 13.0 | 0.00 | 0.00 | 0.00 | 57 | 1017.6 |
| 20260502114800 | 72 | 282 | 8.0 | 13.0 | 0.00 | 0.00 | 0.00 | 57 | 1017.8 |
| 20260502114043 | 72 | 235 | 6.0 | 13.0 | 0.00 | 0.00 | 0.00 | 57 | 1017.6 |
| 20260502113544 | 73 | 234 | 5.0 | 13.0 | 0.00 | 0.00 | 0.00 | 56 | 1017.8 |
| 20260502113043 | 73 | 216 | 9.0 | 13.0 | 0.00 | 0.00 | 0.00 | 56 | 1018.0 |
| 20260502112544 | 73 | 257 | 4.0 | 14.0 | 0.00 | 0.00 | 0.00 | 56 | 1017.8 |
| 20260502112043 | 74 | 254 | 9.0 | 16.0 | 0.00 | 0.00 | 0.00 | 55 | 1018.0 |
| 20260502111542 | 73 | 227 | 10.0 | 16.0 | 0.00 | 0.00 | 0.00 | 59 | 1017.9 |
| 20260502111042 | 71 | 202 | 4.0 | 12.0 | 0.00 | 0.00 | 0.00 | 59 | 1018.0 |
| 20260502110542 | 71 | 241 | 5.0 | 16.0 | 0.00 | 0.00 | 0.00 | 60 | 1018.2 |
| 20260502110333 | 71 | 261 | 9.0 | 16.0 | 0.00 | 0.00 | 0.00 | 60 | 1018.0 |
| 20260502105546 | 71 | 254 | 4.0 | 12.0 | 0.00 | 0.00 | 0.00 | 58 | 1018.0 |
| 20260502105043 | 72 | 257 | 7.0 | 12.0 | 0.00 | 0.00 | 0.00 | 58 | 1018.0 |
| 20260502104547 | 71 | 212 | 7.0 | 14.0 | 0.00 | 0.00 | 0.00 | 58 | 1018.1 |
| 20260502104044 | 71 | 209 | 6.0 | 14.0 | 0.00 | 0.00 | 0.00 | 59 | 1018.1 |
| 20260502103555 | 71 | 244 | 7.0 | 12.0 | 0.00 | 0.00 | 0.00 | 58 | 1018.2 |
| 20260502103043 | 72 | 281 | 8.0 | 13.0 | 0.00 | 0.00 | 0.00 | 57 | 1018.1 |
| 20260502102542 | 72 | 283 | 8.0 | 13.0 | 0.00 | 0.00 | 0.00 | 58 | 1018.2 |
| 20260502102042 | 71 | 207 | 6.0 | 13.0 | 0.00 | 0.00 | 0.00 | 58 | 1018.3 |
| 20260502101541 | 72 | 257 | 7.0 | 12.0 | 0.00 | 0.00 | 0.00 | 58 | 1018.3 |
| 20260502101042 | 71 | 131 | 6.0 | 13.0 | 0.00 | 0.00 | 0.00 | 58 | 1018.3 |
| 20260502100824 | 71 | 255 | 7.0 | 13.0 | 0.00 | 0.00 | 0.00 | 58 | 1018.3 |
| 20260502091040 | 69 | 196 | 3.0 | 11.0 | 0.00 | 0.00 | 0.00 | 57 | 1017.6 |
| 20260502090545 | 69 | 199 | 7.0 | 11.0 | 0.00 | 0.00 | 0.00 | 57 | 1017.5 |
| 20260502071032 | 61 | 237 | 4.0 | 6.0 | 0.00 | 0.00 | 0.00 | 59 | 1018.8 |
| 20260502070530 | 61 | 244 | 4.0 | 6.0 | 0.00 | 0.00 | 0.00 | 58 | 1018.9 |
| 20260502070031 | 60 | 152 | 4.0 | 6.0 | 0.00 | 0.00 | 0.00 | 59 | 1018.8 |
| 20260502065531 | 60 | 159 | 3.0 | 5.0 | 0.00 | 0.00 | 0.00 | 59 | 1018.7 |
| 20260502065033 | 59 | 154 | 3.0 | 5.0 | 0.00 | 0.00 | 0.00 | 59 | 1018.8 |
| 20260502064530 | 58 | 185 | 2.0 | 3.0 | 0.00 | 0.00 | 0.00 | 61 | 1018.8 |
| 20260502064031 | 57 | 185 | 0.0 | 2.0 | 0.00 | 0.00 | 0.00 | 63 | 1018.7 |
| 20260502063530 | 56 | 185 | 1.0 | 3.0 | 0.00 | 0.00 | 0.00 | 62 | 1018.7 |
| 20260502063030 | 56 | 185 | 1.0 | 3.0 | 0.00 | 0.00 | 0.00 | 63 | 1018.8 |
| 20260502062529 | 56 | 185 | 1.0 | 3.0 | 0.00 | 0.00 | 0.00 | 63 | 1018.8 |
| 20260502062030 | 55 | 185 | 0.0 | 2.0 | 0.00 | 0.00 | 0.00 | 64 | 1018.9 |
| 20260502061854 | 54 | 185 | 0.0 | 2.0 | 0.00 | 0.00 | 0.00 | 67 | 1018.9 |
| 20260502061848 | 54 | 185 | 1.0 | 2.0 | 0.00 | 0.00 | 0.00 | 66 | 1019.0 |
| 20260502060811 | 54 | 185 | 0.0 | 0.0 | 0.00 | 0.00 | 0.00 | 67 | 1018.8 |
| 20260502060032 | 54 | 185 | 0.0 | 0.0 | 0.00 | 0.00 | 0.00 | 67 | 1018.9 |
| 20260502055532 | 54 | 185 | 0.0 | 0.0 | 0.00 | 0.00 | 0.00 | 66 | 1018.9 |
| 20260502055313 | 54 | 185 | 0.0 | 0.0 | 0.00 | 0.00 | 0.00 | 64 | 1019.0 |
| 20260502054530 | 54 | 185 | 0.0 | 0.0 | 0.00 | 0.00 | 0.00 | 64 | 1018.9 |
| 20260502054030 | 53 | 185 | 0.0 | 0.0 | 0.00 | 0.00 | 0.00 | 64 | 1018.9 |
| 20260502053530 | 53 | 185 | 0.0 | 0.0 | 0.00 | 0.00 | 0.00 | 64 | 1018.8 |
| 20260502053031 | 53 | 185 | 0.0 | 0.0 | 0.00 | 0.00 | 0.00 | 64 | 1018.7 |
| 20260502052530 | 53 | 185 | 0.0 | 0.0 | 0.00 | 0.00 | 0.00 | 64 | 1018.7 |
| 20260502052336 | 53 | 182 | 0.0 | 0.0 | 0.00 | 0.00 | 0.00 | 66 | 1018.7 |
| 20260502051530 | 53 | 182 | 0.0 | 0.0 | 0.00 | 0.00 | 0.00 | 64 | 1018.5 |
| 20260502051031 | 53 | 182 | 0.0 | 0.0 | 0.00 | 0.00 | 0.00 | 64 | 1018.6 |
| 20260502050531 | 53 | 182 | 0.0 | 2.0 | 0.00 | 0.00 | 0.00 | 62 | 1018.7 |
| 20260502050030 | 53 | 180 | 0.0 | 2.0 | 0.00 | 0.00 | 0.00 | 62 | 1018.7 |
| 20260502045809 | 53 | 180 | 1.0 | 4.0 | 0.00 | 0.00 | 0.00 | 62 | 1018.6 |
| 20260502045031 | 53 | 180 | 0.0 | 4.0 | 0.00 | 0.00 | 0.00 | 62 | 1018.6 |
| 20260502044910 | 52 | 180 | 2.0 | 4.0 | 0.00 | 0.00 | 0.00 | 62 | 1018.7 |
| 20260502044031 | 52 | 180 | 1.0 | 4.0 | 0.00 | 0.00 | 0.00 | 62 | 1018.6 |
| 20260502043545 | 52 | 180 | 1.0 | 4.0 | 0.00 | 0.00 | 0.00 | 62 | 1018.7 |
| 20260502043029 | 52 | 180 | 2.0 | 4.0 | 0.00 | 0.00 | 0.00 | 62 | 1018.8 |
| 20260502042529 | 52 | 189 | 0.0 | 4.0 | 0.00 | 0.00 | 0.00 | 63 | 1018.8 |
| 20260502042312 | 52 | 186 | 0.0 | 4.0 | 0.00 | 0.00 | 0.00 | 63 | 1018.8 |
| 20260502041530 | 52 | 186 | 0.0 | 5.0 | 0.00 | 0.00 | 0.00 | 63 | 1018.7 |